Spokane Fairchild, WA
on Wednesday, December 26, 2012

Wednesday
Previous Day Next Day
Daily Summary
 ActualAverage (KGEG)Record (KGEG)
Temperature
Mean Temperature °F 27°F  
Max Temperature 30°F 32°F 56°F (1980)
Min Temperature 26°F 22°F -8°F (1916)
Degree Days
Heating Degree Days 37 38  
Month to date heating degree days 977  
Since 1 July heating degree days 2644  
Cooling Degree Days 0 0  
Month to date cooling degree days 0  
Year to date cooling degree days 450  
Moisture
Dew Point 28°F   
Average Humidity 100    
Maximum Humidity 100    
Minimum Humidity 99    
Precipitation
Precipitation 0.01 in 0.07 in 0.81 in (1958)
Month to date precipitation 1.97  
Year to date precipitation 16.23  
Snow
Snow 0.00 in 0.60 in 6.10 in (1964)
Month to date snowfall 12.0  
Since 1 July snowfall 19.5  
Snow Depth 7.00 in   
Wind
Wind Speed 5 mph   
Max Wind Speed 10 mph   
Max Gust Speed mph   
Visibility 9 miles   
Events Rain , Snow   

Key: T is trace of precipitation, MM is missing value
Source: NWS Daily Summary
Time(PST)TemperatureDew PointHumidity Pressure Visibility Wind DirectionWind SpeedGust SpeedPrecipitationEvents Conditions
12:03 AM 28.4°F 28.4°F 100% 29.77 in 10.0 miles ENE 4.6 mph - N/A   Overcast
12:33 AM 28.4°F 28.4°F 100% 29.77 in 9.0 miles NE 4.6 mph - N/A   Overcast
12:53 AM 30.2°F 30.2°F 100% 29.77 in 7.0 miles NE 5.8 mph - N/A Rain Light Freezing Rain
12:58 AM 29.5°F 29.5°F 100% 29.85 in 6.0 miles NE 5.8 mph - 0.00 in Rain Light Freezing Rain
1:23 AM 30.2°F 30.2°F 100% 29.77 in 4.0 miles NE 8.1 mph - N/A Rain Light Freezing Rain
1:43 AM 30.2°F 30.2°F 100% 29.76 in 5.0 miles ENE 10.4 mph - N/A Rain Light Freezing Rain
1:58 AM 29.3°F 29.3°F 100% 29.85 in 5.0 miles ENE 5.8 mph - 0.00 in Rain Light Freezing Rain
2:12 AM 28.4°F 28.4°F 100% 29.77 in 7.0 miles ENE 6.9 mph - N/A   Overcast
2:47 AM 28.4°F 28.4°F 100% 29.76 in 8.0 miles NE 8.1 mph - N/A   Overcast
2:58 AM 29.1°F 29.1°F 100% 29.84 in 7.0 miles ENE 6.9 mph - 0.00 in   Overcast
2:59 AM 28.4°F 28.4°F 100% 29.76 in 7.0 miles ENE 6.9 mph - N/A   Overcast
3:04 AM 28.4°F 28.4°F 100% 29.76 in 8.0 miles ENE 8.1 mph - N/A   Overcast
3:17 AM 28.4°F 28.4°F 100% 29.76 in 7.0 miles NE 6.9 mph - N/A   Overcast
3:57 AM 28.4°F 28.4°F 100% 29.75 in 10.0 miles NE 8.1 mph - N/A   Overcast
3:58 AM 28.4°F 28.4°F 100% 29.83 in 10.0 miles NE 8.1 mph - 0.00 in   Overcast
4:18 AM 28.4°F 28.4°F 100% 29.75 in 9.0 miles ENE 6.9 mph - N/A   Overcast
4:38 AM 28.4°F 28.4°F 100% 29.74 in 5.0 miles ENE 5.8 mph - N/A   Overcast
4:58 AM 28.2°F 28.2°F 100% 29.82 in 4.0 miles ENE 8.1 mph - N/A   Overcast
5:08 AM 28.4°F 28.4°F 100% 29.74 in 10.0 miles ENE 8.1 mph - N/A   Overcast
5:58 AM 28.2°F 28.2°F 100% 29.83 in 10.0 miles NNE 6.9 mph - N/A   Overcast
6:09 AM 28.4°F 28.4°F 100% 29.75 in 10.0 miles North 6.9 mph - N/A   Overcast
6:24 AM 28.4°F 28.4°F 100% 29.75 in 10.0 miles NNE 8.1 mph - N/A   Overcast
6:34 AM 28.4°F 28.4°F 100% 29.75 in 10.0 miles NNE 8.1 mph - N/A   Overcast
6:58 AM 27.9°F 27.9°F 100% 29.82 in 10.0 miles NNE 9.2 mph - N/A   Overcast
7:01 AM 28.4°F 28.4°F 100% 29.74 in 10.0 miles NNE 9.2 mph - N/A   Overcast
7:11 AM 28.4°F 28.4°F 100% 29.74 in 10.0 miles NNE 8.1 mph - N/A   Overcast
7:46 AM 28.4°F 28.4°F 100% 29.75 in 10.0 miles NNE 5.8 mph - N/A   Overcast
7:58 AM 28.0°F 28.0°F 100% 29.83 in 10.0 miles North 4.6 mph - N/A   Overcast
8:03 AM 28.4°F 28.4°F 100% 29.75 in 10.0 miles North 4.6 mph - N/A   Overcast
8:28 AM 28.4°F 28.4°F 100% 29.76 in 5.0 miles NNW 3.5 mph - N/A   Overcast
8:38 AM 28.4°F 28.4°F 100% 29.76 in 4.0 miles North 4.6 mph - N/A   Overcast
8:58 AM 27.9°F 27.9°F 100% 29.85 in 10.0 miles North 5.8 mph - N/A   Overcast
9:08 AM 28.4°F 28.4°F 100% 29.77 in 10.0 miles North 5.8 mph - N/A   Overcast
9:18 AM 28.4°F 28.4°F 100% 29.78 in 10.0 miles North 6.9 mph - N/A   Overcast
9:48 AM 28.4°F 28.4°F 100% 29.78 in 10.0 miles North 5.8 mph - N/A   Overcast
9:58 AM 28.2°F 28.2°F 100% 29.86 in 10.0 miles NNE 5.8 mph - N/A   Overcast
10:58 AM 28.8°F 28.8°F 100% 29.86 in 10.0 miles North 5.8 mph - N/A   Overcast
11:53 AM 30.2°F 30.2°F 100% 29.77 in 10.0 miles NNE 6.9 mph - N/A   Overcast
11:58 AM 29.3°F 29.3°F 100% 29.85 in 10.0 miles NNE 8.1 mph - N/A   Overcast
12:58 PM 29.7°F 29.7°F 100% 29.85 in 10.0 miles NNE 6.9 mph - N/A   Overcast
1:58 PM 30.0°F 30.0°F 100% 29.86 in 10.0 miles NNE 5.8 mph - N/A   Overcast
2:33 PM 30.2°F 30.2°F 100% 29.78 in 10.0 miles NE 4.6 mph - N/A   Overcast
2:53 PM 30.2°F 30.2°F 100% 29.79 in 10.0 miles NNE 3.5 mph - N/A   Overcast
2:58 PM 30.2°F 30.2°F 100% 29.88 in 10.0 miles NNE 3.5 mph - N/A   Overcast
3:06 PM 30.2°F 30.2°F 100% 29.80 in 10.0 miles NW 3.5 mph - N/A   Overcast
3:17 PM 30.2°F 30.2°F 100% 29.80 in 10.0 miles North 2.3 mph - N/A   Overcast
3:22 PM 30.2°F 30.2°F 100% 29.80 in 10.0 miles North 2.3 mph - N/A   Overcast
3:27 PM 30.2°F 30.2°F 100% 29.80 in 10.0 miles North 3.5 mph - N/A   Overcast
3:32 PM 30.2°F 30.2°F 100% 29.80 in 10.0 miles North 3.5 mph - N/A   Overcast
3:58 PM 29.5°F 29.5°F 100% 29.88 in 10.0 miles NNE 4.6 mph - N/A   Overcast
4:58 PM 29.3°F 29.3°F 100% 29.89 in 10.0 miles NE 3.5 mph - N/A   Overcast
5:38 PM 28.4°F 28.4°F 100% 29.81 in 10.0 miles NE 3.5 mph - N/A   Overcast
5:56 PM 28.4°F 28.4°F 100% 29.82 in 10.0 miles NE 2.3 mph - N/A   Overcast
5:59 PM 28.4°F 28.4°F 100% 29.91 in 10.0 miles NE 2.3 mph - 0.00 in   Overcast
6:28 PM 26.6°F 26.6°F 100% 29.82 in 10.0 miles Calm Calm - N/A   Overcast
6:58 PM 27.3°F 27.3°F 100% 29.91 in 10.0 miles South 1.2 mph - 0.00 in   Overcast
7:08 PM 26.6°F 26.6°F 100% 29.83 in 10.0 miles SW 2.3 mph - N/A   Overcast
7:09 PM 26.6°F 26.6°F 100% 29.83 in 10.0 miles SW 2.3 mph - N/A   Overcast
7:39 PM 28.4°F 28.4°F 100% 29.83 in 10.0 miles Calm Calm - N/A Snow Light Snow
7:45 PM 28.4°F 28.4°F 100% 29.83 in 10.0 miles Calm Calm - N/A Snow Light Snow
7:55 PM 28.4°F 28.4°F 100% 29.84 in 10.0 miles Calm Calm - N/A Snow Light Snow
7:58 PM 28.0°F 28.0°F 100% 29.92 in 10.0 miles Calm Calm - 0.00 in Snow Light Snow
8:03 PM 28.4°F 28.4°F 100% 29.84 in 10.0 miles Calm Calm - N/A Snow Light Snow
8:13 PM 26.6°F 26.6°F 100% 29.84 in 10.0 miles Calm Calm - N/A Snow Light Snow
8:18 PM 26.6°F 26.6°F 100% 29.84 in 10.0 miles Calm Calm - N/A Snow Light Snow
8:23 PM 26.6°F 26.6°F 100% 29.84 in 10.0 miles Calm Calm - N/A Snow Light Snow
8:28 PM 26.6°F 26.6°F 100% 29.85 in 10.0 miles Calm Calm - N/A Snow Light Snow
8:38 PM 26.6°F 26.6°F 100% 29.85 in 10.0 miles WNW 2.3 mph - N/A Snow Light Snow
8:48 PM 26.6°F 26.6°F 100% 29.85 in 10.0 miles NNE 1.2 mph - N/A Snow Light Snow
8:58 PM 26.8°F 26.8°F 100% 29.94 in 10.0 miles NE 2.3 mph - 0.00 in Snow Light Snow
9:18 PM 26.6°F 26.6°F 100% 29.86 in 10.0 miles Calm Calm - N/A Snow Light Snow
9:33 PM 26.6°F 26.6°F 100% 29.86 in 10.0 miles ENE 1.2 mph - N/A Snow Light Snow
9:58 PM 27.7°F 27.7°F 100% 29.94 in 8.0 miles Calm Calm - N/A Snow Light Snow
10:03 PM 28.4°F 28.4°F 100% 29.87 in 7.0 miles Calm Calm - N/A Snow Light Snow
10:23 PM 28.4°F 28.4°F 100% 29.87 in 5.0 miles East 1.2 mph - N/A Snow Light Snow
10:38 PM 28.4°F 28.4°F 100% 29.87 in 4.0 miles Calm Calm - N/A Snow Light Snow
10:58 PM 27.5°F 27.5°F 100% 29.96 in 5.0 miles Calm Calm - 0.01 in Snow Light Snow
11:08 PM 28.4°F 28.4°F 100% 29.87 in 5.0 miles East 2.3 mph - N/A Snow Light Snow
11:13 PM 28.4°F 28.4°F 100% 29.88 in 6.0 miles ENE 1.2 mph - N/A Snow Light Snow
11:14 PM 28.4°F 28.4°F 100% 29.88 in 6.0 miles Calm Calm - N/A Snow Light Snow
11:29 PM 28.4°F 28.4°F 100% 29.88 in 6.0 miles Calm Calm - N/A Snow Light Snow
11:39 PM 28.4°F 28.4°F 100% 29.88 in 6.0 miles East 2.3 mph - N/A Snow Light Snow
11:58 PM 27.1°F 27.0°F 99% 29.96 in 7.0 miles Calm Calm - 0.00 in Snow Light Snow
Moon Phase
Dec. 26 Dec. 28 Jan. 04 Jan. 11 Jan. 18
Sunrise:07:38 AM (PST) Moon Rise:03:04 PM (PST)12/26
Sunset:04:04 PM (PST) Moon Set:06:03 AM (PST)12/26

Copyright © 2014 The Weather Underground, Inc.